Location: Treviso
(45.6669°N, 12.2430°E)
Time: 21:45:50
(UTC+01:00)

ISS - Pass Details

Date: 29 November 2023
Orbit: 415 x 417 km, 51.6° (Epoch: 06 December)

Event Time Altitude Azimuth Distance (km) Brightness Sun altitude
Rises 18:16:01 0° 297° (WNW) 2,362 0.9 -18.0°
Reaches altitude 10° 18:18:11 10° 305° (NW) 1,498 -0.4 -18.4°
Enters shadow 18:21:11 42° 6° (N) 612 -3.1 -18.9°
